Zurück zum Katalog

SL-8 DEB

AktivLEO
NORAD 1590·DEBRIS·🇷🇺 Russia

Gestartet Sep 18, 1965 von Baikonur Cosmodrome

Loading…

Nächste Überflüge (nächste 24 Stunden)

TLE

AktuellSource: Space-Track

Epoche: Sep 14, 2026, 06:28 UTC

1 01590U 65073G   26257.27003363  .00000025  00000-0  75583-3 0  9990
2 01590  56.0824 215.2117 0171725 158.3245 344.9812 12.49814118769475

Verfolge SL-8 DEB in Echtzeit mit AllMySat

Download on the App Store